Regional Weather Roundup
Issued by NWS Memphis, TN

Home | Current Version | Previous Version | Text Only | Print | Product List | Glossary On
Versions: 1 2 3 4 5 6 7 8 9 10 11 12 13 14 15 16 17 18 19 20 21 22 23 24 25 26 27 28 29 30 31 32 33 34 35 36 37 38 39 40 41 42 43 44 45 46 47 48 49 50
000
ASUS44 KMEG 192010
RWRMEG
MEMPHIS CWA HOURLY WEATHER ROUNDUP
NATIONAL WEATHER SERVICE MEMPHIS TN
300 PM CDT FRI SEP 19 2014

...WEST TENNESSEE...

CITY           SKY/WX    TMP DP  RH WIND       PRES   REMARKS
MEMPHIS INTL   PTSUNNY   84  66  54 SE6       30.00F
NWS MEMPHIS      N/A     83 N/A N/A MISG        N/A
JACKSON        SUNNY     83  66  56 S7        30.01F
LEXINGTON      MOSUNNY   84  66  54 VRB6      30.01F
SAVANNAH       CLOUDY    84  66  54 VRB3      30.01F
DYERSBURG      MOSUNNY   81  59  47 SE3       30.02F
UNION CITY     MOSUNNY   81  63  54 CALM      30.01F
PARIS          PTSUNNY   79  61  53 CALM      30.03F
HUNTINGDON     MOSUNNY   81  61  50 VRB5      30.02S


...EASTERN ARKANSAS...

CITY           SKY/WX    TMP DP  RH WIND       PRES   REMARKS
JONESBORO      MOSUNNY   81  64  56 E5        30.00F
WEST MEMPHIS   MOSUNNY   85  67  54 VRB3      29.99F
BATESVILLE     PTSUNNY   81  64  57 E6        30.01F
NEWPORT        CLOUDY    83  65  54 E3        30.02F
WALNUT RIDGE   MOSUNNY   81  63  54 S7        30.00F
BLYTHEVILLE    SUNNY     84  65  52 VRB5      30.01F
NW BLYTHEVILLE MOSUNNY   82  64  54 E3        30.00
SEARCY         MOSUNNY   86  68  54 E8        30.00F
STUTTGART      PTSUNNY   82  68  61 SE8       30.00F
PINE BLUFF     MOSUNNY   84  68  58 CALM      29.99F
MONTICELLO     MOSUNNY   88  68  51 NE7       29.98F HX  91


...NORTH MISSISSIPPI...

CITY           SKY/WX    TMP DP  RH WIND       PRES   REMARKS
TUPELO         SUNNY     87  64  46 S5        29.99F
OXFORD         MOSUNNY   82  64  54 S3        30.02F
OLIVE BRANCH   PTSUNNY   82  73  74 SE5       30.03
CLARKSDALE     MOSUNNY   86  68  54 SE3       30.00F
CORINTH        PTSUNNY   84  64  51 VRB5      30.00F
GRENADA        SUNNY     86  64  48 E6        29.99F
GREENWOOD      MOSUNNY   88  66  48 NE8       29.97F HX  90
COLUMBUS       MOSUNNY   88  65  45 NE6       29.98F
STARKVILLE     FAIR      88  63  42 E7        29.99F
GOLDEN TRIANGL MOSUNNY   88  63  42 E5        29.99F


...SOUTHEAST MISSOURI...

CITY           SKY/WX    TMP DP  RH WIND       PRES   REMARKS
WEST PLAINS    MOSUNNY   78  60  53 SE9       30.05F
POPLAR BLUFF   SUNNY     81  59  47 E6        30.01F
CAPE GIRARDEAU SUNNY     79  59  50 SE6       30.02F


...NORTHWEST ALABAMA...

CITY           SKY/WX    TMP DP  RH WIND       PRES   REMARKS
MUSCLE SHOALS  MOSUNNY   83  67  58 CALM      30.01F


...MIDDLE TENNESSEE...

CITY           SKY/WX    TMP DP  RH WIND       PRES   REMARKS
NASHVILLE      MOSUNNY   87  61  41 VRB5      30.03F
CLARKSVILLE    MOSUNNY   83  60  45 SE7       30.02F
DICKSON        SUNNY     81  63  54 SE5       30.03F
COLUMBIA       SUNNY     88  66  48 SW6       30.00F HX  90
LEWISBURG      MOSUNNY   85  64  49 SE3       30.02F


...WESTERN KENTUCKY...

CITY           SKY/WX    TMP DP  RH WIND       PRES   REMARKS
PADUCAH        SUNNY     85  58  39 VRB5      30.01F
FORT CAMPBELL  MOSUNNY   82  60  47 E5        30.02F


...CENTRAL ARKANSAS...

CITY           SKY/WX    TMP DP  RH WIND       PRES   REMARKS
LITTLE ROCK    PTSUNNY   85  66  53 VRB6      29.99F


SKY/WX REPORTED AS FAIR MEANS FEW OR NO CLOUDS BELOW
12 THOUSAND FEET.




USA.gov is the U.S. government's official web portal to all federal, state and local government web resources and services.